STARLINK-35655, 66470

Orbit data source: Space-Track

STARLINK-35655, 66470 is a payload satellite owned by SpaceX/Seattle (US) in LEO that was launched on Sat, 15 Nov 2025 UTC via an FALCON 9 launch vehicle from the Air Force Eastern Test Range (AFETR). Payload-class satellites include a variety of spacecraft equipped with specific instruments for various scientific and technological missions. These include communications satellites like Starlink; space stations such as the ISS; scientific satellites like the Hubble; Earth observation satellites from companies like Planet Labs, Umbra, and HawkEye 360; GPS; miniature CubeSats for education and research; and military/defense satellites.

Loading next visibility...
Identifier
66470, 2025-262Q
Orbit
LEO
Country
Flag of USUS
Related business
Manufacturer
SpaceX/Seattle
Mission
Operational Commercial Communications
Bus & Motor
STARLINK V2MO, Unknown motor
Mass
575 kg wet, ~530 kg dry
Launch date (UTC)
2025-11-15 (7 months ago)
Launch vehicle
FALCON 9
Launch site
Air Force Eastern Test Range (AFETR)
Object type
Payload
Rocket body
Debris
Shape & HBR
Box + 2 Pan, 17.7 m
Radar Cross Section
36.964 m², Large (>1 m²)

Expand to show TLE details & history
Last TLE update: 18 hours ago

TLE from 18 hours ago
0 STARLINK-35655
1 66470U 25262Q   26171.13965551  .00011422  00000-0  42374-3 0  9995
2 66470  43.0025  77.6866 0001736 272.3562  87.7091 15.27595319 34571
Epoch: 2026-06-20T03:21Z
TLE epoch observation values (Epoch: 2026-06-20T03:21:06.236Z)
Latitude
0.00001°
Longitude
119.05206°
Altitude
482.732 km
Speed
7.626 km/s
True Right ascension
05h 10m 44s
True Declination
0° 00' 00"
Sunlit
Object was in daylight at epoch
Visualization orbit readout
Latitude
Unknown
Longitude
Unknown
Altitude
Unknown
Speed
Unknown
Apparent Right ascension
Unknown
Apparent Declination
Unknown
Sunlit
N/A
Visualization observer readout
Local Sidereal Time
08:33:31
Azimuth
Unknown
Elevation
Unknown
Doppler factor
Unknown
Orbital elements
Apogee altitude
486.139 km
Perigee altitude
483.757 km
Semi-major axis
6,863.085 km
Eccentricity
0.00017
Inclination
43.0025°
RAAN
77.6866°
Arg. of periapsis
272.3562°
True anomaly
87.72898°
Mean anomaly
87.7091°
Eccentric anomaly
87.71904°
Mean motion
3.81737 °/min
Orbital period
94.31 mins
BSTAR
0.00042374
Loading maneuver chart data...
Computing Atmospheric mass density...
Loading historical data...
Loading historical data...
Loading historical data...
Loading historical data...
Loading historical data...
Loading historical data...
Loading historical data...

Documentation

Showing up to 5 results
|